Terminal Aerodrome Forecast
Issued by NWS

Home | Current Version | Previous Version | Text Only | Print | Product List | Glossary On
Versions: 1 2 3 4 5 6 7 8 9 10 11 12 13 14 15 16 17 18 19 20 21 22 23 24 25 26
000
FTAK31 PANC 071140
TAFAVD
TAF
PAVD 071140Z 0712/0812 VRB03KT P6SM -RA SCT005 OVC035
     FM071500 VRB03KT 5SM -RA OVC025
     FM080000 25007KT P6SM -SHRA SCT025 OVC040
     FM081000 07004KT P6SM VCSH SCT015 BKN040
      AMD LTD TO CLD VIS AND WIND=

USA.gov is the U.S. government's official web portal to all federal, state and local government web resources and services.